TimeEST,TemperatureF,Dew PointF,Humidity,Sea Level PressureIn,VisibilityMPH,Wind Direction,Wind SpeedMPH,Gust SpeedMPH,PrecipitationIn,Events,Conditions,WindDirDegrees,DateUTC
12:54 AM,19.9,16.0,85,30.19,10.0,Calm,Calm,-,N/A,,Clear,0,2013-02-25 05:54:00
1:54 AM,19.9,16.0,85,30.18,8.0,East,3.5,-,N/A,,Clear,90,2013-02-25 06:54:00
2:54 AM,19.9,16.0,85,30.18,7.0,Calm,Calm,-,N/A,,Clear,0,2013-02-25 07:54:00
3:54 AM,19.0,16.0,88,30.18,6.0,Calm,Calm,-,N/A,,Clear,0,2013-02-25 08:54:00
4:54 AM,19.0,15.1,85,30.18,6.0,Calm,Calm,-,N/A,,Clear,0,2013-02-25 09:54:00
5:54 AM,19.9,16.0,85,30.21,5.0,Calm,Calm,-,N/A,,Clear,0,2013-02-25 10:54:00
6:54 AM,19.9,16.0,85,30.20,6.0,Calm,Calm,-,N/A,,Clear,0,2013-02-25 11:54:00
7:54 AM,23.0,19.0,85,30.23,4.0,East,3.5,-,N/A,,Clear,100,2013-02-25 12:54:00
8:54 AM,25.0,21.0,85,30.22,5.0,East,3.5,-,N/A,,Clear,100,2013-02-25 13:54:00
9:54 AM,30.9,23.0,72,30.21,8.0,ESE,4.6,-,N/A,,Clear,110,2013-02-25 14:54:00
10:54 AM,34.0,23.0,64,30.20,10.0,SE,10.4,-,N/A,,Clear,140,2013-02-25 15:54:00
11:54 AM,36.0,23.0,59,30.19,10.0,SE,9.2,-,N/A,,Clear,140,2013-02-25 16:54:00
12:54 PM,37.9,23.0,55,30.18,10.0,SE,8.1,-,N/A,,Clear,140,2013-02-25 17:54:00
1:54 PM,37.9,23.0,55,30.17,10.0,Variable,4.6,-,N/A,,Clear,0,2013-02-25 18:54:00
2:54 PM,39.9,23.0,51,30.14,10.0,East,9.2,-,N/A,,Clear,100,2013-02-25 19:54:00
3:54 PM,39.9,24.1,53,30.12,10.0,ESE,6.9,-,N/A,,Clear,120,2013-02-25 20:54:00
4:54 PM,39.9,24.1,53,30.12,10.0,ESE,8.1,-,N/A,,Clear,120,2013-02-25 21:54:00
5:54 PM,39.0,25.0,57,30.10,10.0,East,6.9,-,N/A,,Clear,80,2013-02-25 22:54:00
6:54 PM,37.0,25.0,62,30.09,10.0,East,6.9,-,N/A,,Clear,80,2013-02-25 23:54:00
7:54 PM,36.0,25.0,64,30.09,10.0,ENE,3.5,-,N/A,,Clear,70,2013-02-26 00:54:00
8:54 PM,35.1,25.0,67,30.05,10.0,ENE,5.8,-,N/A,,Clear,60,2013-02-26 01:54:00
9:54 PM,34.0,24.1,67,30.07,10.0,East,5.8,-,N/A,,Clear,80,2013-02-26 02:54:00
10:54 PM,34.0,25.0,70,30.08,10.0,East,10.4,-,N/A,,Clear,100,2013-02-26 03:54:00
11:54 PM,33.1,25.0,72,30.05,10.0,East,6.9,-,N/A,,Clear,80,2013-02-26 04:54:00